| time (UTC) | temp F | wind direction | speed MPH | gust MPH | rain 1hr in | rain 24hr in | rain mn in | humidity % | barometer mb |
| 20260901091512 | 58 | 71 | 0.0 | 0.0 | 0.00 | 0.00 | 0.00 | 80 | 1010.0 |
| 20260901090009 | 59 | 71 | 0.0 | 0.0 | 0.00 | 0.00 | 0.00 | 80 | 1009.9 |
| 20260901084507 | 58 | 71 | 0.0 | 0.0 | 0.00 | 0.00 | 0.00 | 80 | 1009.9 |
| 20260901083003 | 59 | 38 | 0.0 | 0.0 | 0.00 | 0.00 | 0.00 | 80 | 1009.8 |
| 20260901081500 | 59 | 38 | 0.0 | 0.0 | 0.00 | 0.00 | 0.00 | 79 | 1009.7 |
| 20260901080112 | 59 | 38 | 0.0 | 0.0 | 0.00 | 0.00 | 0.00 | 79 | 1009.6 |
| 20260901074555 | 60 | 38 | 0.0 | 0.0 | 0.00 | 0.00 | 0.00 | 79 | 1009.4 |
| 20260901073053 | 60 | 38 | 0.0 | 0.0 | 0.00 | 0.00 | 0.00 | 78 | 1009.2 |
| 20260901071600 | 61 | 38 | 0.0 | 0.0 | 0.00 | 0.00 | 0.00 | 78 | 1009.1 |
| 20260901070058 | 61 | 38 | 0.0 | 0.0 | 0.00 | 0.00 | 0.00 | 78 | 1008.8 |
| 20260901064604 | 61 | 38 | 0.0 | 0.0 | 0.00 | 0.00 | 0.00 | 77 | 1008.6 |
| 20260901063102 | 62 | 38 | 0.0 | 0.0 | 0.00 | 0.00 | 0.00 | 77 | 1008.2 |
| 20260901061546 | 63 | 38 | 0.0 | 0.0 | 0.00 | 0.00 | 0.00 | 76 | 1008.1 |
| 20260901060046 | 63 | 55 | 0.0 | 0.0 | 0.00 | 0.00 | 0.00 | 75 | 1008.0 |
| 20260901054546 | 64 | 55 | 0.0 | 0.0 | 0.00 | 0.00 | 0.00 | 74 | 1008.0 |
| 20260901053045 | 65 | 55 | 0.0 | 0.0 | 0.00 | 0.00 | 0.00 | 73 | 1007.9 |
| 20260901051551 | 65 | 55 | 0.0 | 0.0 | 0.00 | 0.00 | 0.00 | 71 | 1008.0 |
| 20260901050044 | 66 | 55 | 0.0 | 0.0 | 0.00 | 0.00 | 0.00 | 70 | 1007.9 |
| 20260901044543 | 67 | 43 | 0.0 | 0.0 | 0.00 | 0.00 | 0.00 | 68 | 1007.7 |
| 20260901043046 | 67 | 38 | 0.0 | 0.0 | 0.00 | 0.00 | 0.00 | 67 | 1007.6 |
| 20260901041543 | 68 | 38 | 0.0 | 0.0 | 0.00 | 0.00 | 0.00 | 66 | 1007.3 |
| 20260901040042 | 69 | 207 | 0.0 | 0.0 | 0.00 | 0.00 | 0.00 | 62 | 1007.1 |
| 20260901034548 | 70 | 207 | 0.0 | 0.0 | 0.00 | 0.00 | 0.00 | 59 | 1006.7 |
| 20260901033044 | 72 | 207 | 0.0 | 0.0 | 0.00 | 0.00 | 0.00 | 57 | 1006.7 |
| 20260901031547 | 74 | 200 | 0.0 | 0.0 | 0.00 | 0.00 | 0.00 | 53 | 1006.5 |
| 20260901030041 | 74 | 296 | 0.0 | 3.0 | 0.00 | 0.00 | 0.00 | 56 | 1006.5 |
| 20260901024540 | 75 | 46 | 0.0 | 0.0 | 0.00 | 0.00 | 0.00 | 45 | 1006.4 |
| 20260901023040 | 78 | 336 | 0.0 | 0.0 | 0.00 | 0.00 | 0.00 | 42 | 1006.4 |
| 20260901021549 | 81 | 158 | 0.0 | 0.0 | 0.00 | 0.00 | 0.00 | 39 | 1006.3 |
| 20260901020038 | 83 | 158 | 0.0 | 0.0 | 0.00 | 0.00 | 0.00 | 32 | 1006.2 |
| 20260901014538 | 84 | 158 | 0.0 | 0.0 | 0.00 | 0.00 | 0.00 | 30 | 1006.2 |
| 20260901013055 | 85 | 232 | 0.0 | 1.0 | 0.00 | 0.00 | 0.00 | 29 | 1006.2 |
| 20260901011535 | 85 | 207 | 0.0 | 0.0 | 0.00 | 0.00 | 0.00 | 30 | 1006.2 |
| 20260901010044 | 85 | 215 | 0.0 | 1.0 | 0.00 | 0.00 | 0.00 | 31 | 1006.4 |
| 20260901004536 | 84 | 176 | 0.0 | 3.0 | 0.00 | 0.00 | 0.00 | 33 | 1006.4 |
| 20260901003030 | 85 | 233 | 0.0 | 5.0 | 0.00 | 0.00 | 0.00 | 32 | 1006.4 |
| 20260901001528 | 87 | 163 | 0.0 | 2.0 | 0.00 | 0.00 | 0.00 | 31 | 1006.5 |
| 20260901000027 | 87 | 250 | 0.0 | 3.0 | 0.00 | 0.00 | 0.00 | 32 | 1006.5 |
| 20260831234526 | 87 | 221 | 0.0 | 4.0 | 0.00 | 0.00 | 0.00 | 31 | 1006.5 |
| 20260831233024 | 87 | 200 | 0.0 | 3.0 | 0.00 | 0.00 | 0.00 | 32 | 1006.6 |
| 20260831231521 | 86 | 241 | 0.0 | 1.0 | 0.00 | 0.00 | 0.00 | 33 | 1006.8 |
| 20260831230019 | 87 | 188 | 1.0 | 7.0 | 0.00 | 0.00 | 0.00 | 32 | 1007.0 |
| 20260831224517 | 86 | 136 | 0.0 | 6.0 | 0.00 | 0.00 | 0.00 | 33 | 1007.0 |
| 20260831223026 | 86 | 195 | 1.0 | 7.0 | 0.00 | 0.00 | 0.00 | 33 | 1007.1 |
| 20260831221516 | 86 | 225 | 0.0 | 8.0 | 0.00 | 0.00 | 0.00 | 33 | 1007.2 |
| 20260831220012 | 86 | 154 | 2.0 | 10.0 | 0.00 | 0.00 | 0.00 | 34 | 1007.4 |
| 20260831214509 | 86 | 206 | 5.0 | 9.0 | 0.00 | 0.00 | 0.00 | 36 | 1007.5 |
| 20260831213007 | 85 | 96 | 2.0 | 9.0 | 0.00 | 0.00 | 0.00 | 35 | 1007.6 |
| 20260831211508 | 85 | 167 | 1.0 | 8.0 | 0.00 | 0.00 | 0.00 | 36 | 1007.8 |
| 20260831210003 | 84 | 268 | 0.0 | 8.0 | 0.00 | 0.00 | 0.00 | 37 | 1007.9 |
| 20260831204600 | 85 | 168 | 0.0 | 4.0 | 0.00 | 0.00 | 0.00 | 36 | 1008.0 |
| 20260831203058 | 83 | 234 | 3.0 | 9.0 | 0.00 | 0.00 | 0.00 | 37 | 1008.4 |
| 20260831201559 | 82 | 167 | 2.0 | 8.0 | 0.00 | 0.00 | 0.00 | 40 | 1008.6 |
| 20260831200050 | 82 | 154 | 4.0 | 7.0 | 0.00 | 0.00 | 0.00 | 42 | 1008.8 |
| 20260831194633 | 80 | 215 | 4.0 | 7.0 | 0.00 | 0.00 | 0.00 | 45 | 1008.9 |
| 20260831193044 | 79 | 211 | 4.0 | 9.0 | 0.00 | 0.00 | 0.00 | 47 | 1009.1 |
| 20260831191541 | 78 | 234 | 2.0 | 6.0 | 0.00 | 0.00 | 0.00 | 48 | 1009.2 |
| 20260831190041 | 77 | 268 | 2.0 | 6.0 | 0.00 | 0.00 | 0.00 | 50 | 1009.5 |
| 20260831184538 | 76 | 199 | 3.0 | 8.0 | 0.00 | 0.00 | 0.00 | 51 | 1009.8 |
| 20260831183031 | 75 | 207 | 1.0 | 7.0 | 0.00 | 0.00 | 0.00 | 53 | 1009.9 |
| 20260831181535 | 74 | 131 | 0.0 | 6.0 | 0.00 | 0.00 | 0.00 | 56 | 1010.1 |
| 20260831180023 | 72 | 163 | 1.0 | 7.0 | 0.00 | 0.00 | 0.00 | 57 | 1010.4 |
| 20260831174532 | 71 | 165 | 1.0 | 4.0 | 0.00 | 0.00 | 0.00 | 61 | 1010.5 |
| 20260831173017 | 69 | 202 | 2.0 | 5.0 | 0.00 | 0.00 | 0.00 | 62 | 1010.7 |
| 20260831171516 | 68 | 128 | 1.0 | 4.0 | 0.00 | 0.00 | 0.00 | 63 | 1010.8 |
| 20260831170010 | 67 | 216 | 3.0 | 5.0 | 0.00 | 0.00 | 0.00 | 66 | 1010.9 |
| 20260831164506 | 66 | 82 | 1.0 | 5.0 | 0.00 | 0.00 | 0.00 | 67 | 1011.1 |
| 20260831163003 | 65 | 173 | 1.0 | 4.0 | 0.00 | 0.00 | 0.00 | 70 | 1011.2 |
| 20260831161600 | 64 | 215 | 0.0 | 3.0 | 0.00 | 0.00 | 0.00 | 72 | 1011.3 |
| 20260831160055 | 62 | 157 | 1.0 | 3.0 | 0.00 | 0.00 | 0.00 | 75 | 1011.5 |
| 20260831154554 | 60 | 123 | 1.0 | 3.0 | 0.00 | 0.00 | 0.00 | 78 | 1011.5 |
| 20260831153107 | 58 | 23 | 0.0 | 2.0 | 0.00 | 0.00 | 0.00 | 80 | 1011.5 |
| 20260831151555 | 58 | 23 | 0.0 | 0.0 | 0.00 | 0.00 | 0.00 | 80 | 1011.6 |
| 20260831150050 | 55 | 23 | 0.0 | 0.0 | 0.00 | 0.00 | 0.00 | 76 | 1011.8 |
| 20260831144621 | 52 | 23 | 0.0 | 0.0 | 0.00 | 0.00 | 0.00 | 74 | 1011.8 |
| 20260831143049 | 51 | 23 | 0.0 | 0.0 | 0.00 | 0.00 | 0.00 | 76 | 1011.8 |
| 20260831141547 | 51 | 23 | 0.0 | 0.0 | 0.00 | 0.00 | 0.00 | 76 | 1011.8 |
| 20260831140046 | 50 | 23 | 0.0 | 0.0 | 0.00 | 0.00 | 0.00 | 77 | 1011.8 |
| 20260831134546 | 50 | 23 | 0.0 | 0.0 | 0.00 | 0.00 | 0.00 | 78 | 1011.8 |
| 20260831133048 | 51 | 23 | 0.0 | 0.0 | 0.00 | 0.00 | 0.00 | 78 | 1011.8 |
| 20260831131542 | 51 | 23 | 0.0 | 0.0 | 0.00 | 0.00 | 0.00 | 78 | 1011.9 |
| 20260831130040 | 51 | 23 | 0.0 | 0.0 | 0.00 | 0.00 | 0.00 | 79 | 1012.0 |
| 20260831124540 | 51 | 23 | 0.0 | 0.0 | 0.00 | 0.00 | 0.00 | 79 | 1011.9 |
| 20260831123038 | 52 | 23 | 0.0 | 0.0 | 0.00 | 0.00 | 0.00 | 79 | 1012.0 |
| 20260831121543 | 52 | 23 | 0.0 | 1.0 | 0.00 | 0.00 | 0.00 | 79 | 1012.2 |
| 20260831120038 | 52 | 23 | 0.0 | 1.0 | 0.00 | 0.00 | 0.00 | 80 | 1012.3 |
| 20260831114547 | 52 | 23 | 0.0 | 0.0 | 0.00 | 0.00 | 0.00 | 80 | 1012.4 |
| 20260831113030 | 52 | 23 | 0.0 | 0.0 | 0.00 | 0.00 | 0.00 | 80 | 1012.5 |
| 20260831111529 | 53 | 23 | 0.0 | 1.0 | 0.00 | 0.00 | 0.00 | 80 | 1012.6 |
| 20260831110027 | 53 | 23 | 0.0 | 0.0 | 0.00 | 0.00 | 0.00 | 80 | 1012.5 |
| 20260831104533 | 53 | 23 | 0.0 | 1.0 | 0.00 | 0.00 | 0.00 | 80 | 1012.4 |
| 20260831103025 | 54 | 9 | 0.0 | 2.0 | 0.00 | 0.00 | 0.00 | 80 | 1012.6 |
| 20260831101523 | 54 | 355 | 0.0 | 2.0 | 0.00 | 0.00 | 0.00 | 80 | 1012.9 |
| 20260831100019 | 54 | 80 | 0.0 | 0.0 | 0.00 | 0.00 | 0.00 | 80 | 1013.0 |
| 20260831094517 | 55 | 95 | 0.0 | 0.0 | 0.00 | 0.00 | 0.00 | 80 | 1013.2 |
| 20260831093020 | 55 | 51 | 0.0 | 1.0 | 0.00 | 0.00 | 0.00 | 80 | 1013.2 |